Wind_Speed
21 20 18 17 15 15 14 12 11 10 8 6 5 4 4 5 5 5 6 7 7 7 7 7 8 8 8 8 8 8 8 8 8 8 8 7 7 6 5 4 4 3 3 3
23 23 20 19 18 17 16 14 13 12 11 9 7 6 6 5 5 5 6 6 6 6 5 6 6 7 7 7 7 7 7 7 8 8 7 7 7 6 5 5 4 4 4 4
25 23 23 22 20 18 17 16 14 14 13 11 10 9 8 7 6 6 6 6 6 6 5 5 6 6 6 6 6 6 6 7 8 7 7 6 7 6 6 6 5 5 5 5
28 27 26 25 23 21 19 18 17 17 15 13 12 11 11 9 8 7 7 7 7 7 6 7 6 6 6 6 7 6 6 6 7 8 7 6 7 7 7 6 6 6 6 5
29 29 28 26 25 24 22 22 20 20 18 17 15 13 12 12 9 9 9 9 8 8 8 8 8 7 7 7 7 8 7 7 7 7 7 7 7 7 7 7 7 7 6 6
31 30 29 27 27 27 26 24 23 22 20 20 18 16 15 13 12 11 10 10 10 11 10 10 9 9 8 8 9 9 9 9 9 9 8 8 8 8 8 7 7 7 7 7
31 31 30 29 28 29 28 25 23 22 22 22 20 20 17 15 14 12 12 12 12 12 13 13 12 11 10 10 10 10 10 10 10 10 10 9 9 9 9 9 8 8 8 9
30 31 31 30 29 29 28 26 25 23 21 20 23 22 18 17 16 14 14 13 13 13 13 14 14 13 12 12 12 12 12 12 11 11 11 10 10 10 10 10 10 10 10 10
29 29 30 30 29 29 29 27 24 24 23 21 22 22 20 19 18 17 15 14 14 15 15 15 15 15 15 15 14 14 14 13 13 13 12 13 12 11 12 11 12 11 11 11
29 28 29 29 31 31 30 28 27 26 24 23 23 22 20 19 18 18 17 16 16 16 17 17 17 17 17 17 16 16 16 15 14 14 14 14 14 14 14 13 13 13 13 13
29 27 27 29 31 30 31 31 30 28 26 24 22 21 21 21 19 18 18 18 18 18 19 19 18 18 18 18 18 18 18 17 17 16 16 16 17 17 16 15 15 14 14 15
28 27 27 28 29 30 31 31 31 29 29 27 25 22 22 21 19 19 19 20 20 20 20 20 20 20 20 20 20 20 20 19 19 18 18 19 19 19 19 17 16 16 17 17
28 29 27 26 27 29 30 31 31 30 29 28 26 23 23 23 21 20 20 21 21 21 22 21 21 21 22 22 22 22 22 20 20 20 20 20 21 21 20 19 19 19 19 19
29 30 29 26 25 26 29 30 30 30 28 29 28 25 25 25 23 22 22 22 21 22 23 22 22 22 22 23 24 23 23 22 22 21 21 22 22 22 21 21 21 21 22 22
29 29 29 27 26 26 27 28 29 29 28 27 26 26 26 25 25 23 22 22 22 23 23 23 23 24 23 23 23 24 24 24 24 24 23 24 24 23 23 23 23 23 24 24
28 28 28 28 27 26 26 26 27 27 27 28 27 27 26 26 25 24 23 23 23 23 23 23 23 24 24 24 24 24 25 25 25 25 25 25 25 25 25 25 25 25 26 26
28 28 27 26 26 26 28 27 26 26 27 28 27 26 26 26 25 25 25 24 24 24 25 25 24 24 23 24 24 25 25 25 26 27 26 27 27 27 28 27 27 27 27 26
29 28 28 27 27 28 28 27 27 26 26 27 28 28 27 26 25 26 26 25 26 26 26 26 26 26 25 25 26 26 27 28 29 29 29 29 29 29 29 29 28 27 27 27
29 28 27 27 27 29 31 29 27 27 27 28 29 28 27 26 26 26 26 27 28 28 28 27 28 28 28 28 28 28 29 30 32 31 31 31 31 31 31 31 30 29 29 28
29 28 28 28 27 28 31 29 27 28 29 29 28 28 29 28 28 28 27 28 28 29 30 30 30 30 30 30 30 30 30 31 31 32 32 32 32 32 32 32 31 30 30 30
30 30 30 29 29 30 31 29 28 29 29 28 28 28 28 28 30 29 29 29 29 30 31 32 32 31 31 30 31 31 31 32 32 32 33 34 34 34 33 33 32 33 32 32
31 31 31 30 31 31 32 30 30 30 30 29 29 29 28 28 29 29 30 30 30 31 31 32 32 31 31 31 32 32 33 33 33 34 34 35 34 34 33 34 33 34 33 33
31 31 32 32 32 32 31 30 30 30 29 29 29 29 29 29 30 30 30 31 32 33 33 33 33 32 32 33 33 34 34 34 35 35 34 34 34 34 34 34 33 33 34 34
31 31 31 32 31 31 30 29 29 29 30 29 29 29 30 30 31 31 31 33 33 34 34 34 34 34 35 35 35 35 36 36 37 36 36 35 35 35 35 35 34 34 35 35
29 29 30 31 31 30 30 30 29 29 30 31 31 31 31 31 31 31 32 32 33 33 33 34 34 34 34 35 36 37 37 37 38 37 36 36 36 35 36 36 35 35 35 35
26 27 28 29 29 29 30 30 30 30 30 30 30 30 31 31 32 32 32 31 32 33 34 35 35 35 36 36 37 37 37 38 38 38 38 37 35 36 36 36 36 36 36 37
Wind_Direction
234 231 229 231 230 230 237 237 245 256 261 268 275 282 303 338 358 1 5 8 6 6 11 18 20 23 31 34 37 40 36 33 33 33 32 32 30 30 30 30 23 17 3 348
235 236 232 233 235 235 236 238 246 256 259 262 267 270 278 304 325 332 337 346 350 349 357 1 1 6 12 17 20 23 23 20 18 17 24 27 28 25 19 9 1 354 350 344
237 237 236 235 237 238 239 239 243 252 260 261 262 271 274 281 296 306 314 320 325 328 331 333 339 347 355 358 358 0 6 9 9 6 8 14 17 20 14 9 3 355 348 340
235 236 237 237 237 239 242 244 244 248 254 261 258 262 271 273 281 289 291 295 300 305 305 309 317 321 328 332 335 335 339 345 350 352 355 360 3 5 4 1 360 354 345 336
236 236 238 237 237 237 239 245 248 250 252 254 257 257 262 267 273 277 278 275 277 287 291 296 303 306 312 315 317 320 320 321 329 333 340 342 343 345 347 344 343 342 337 327
236 237 237 237 236 236 239 244 248 252 254 254 252 255 258 262 267 267 268 266 270 276 279 284 291 293 298 303 307 308 308 307 313 318 322 325 327 330 329 326 325 327 326 322
235 236 237 236 237 238 238 240 245 249 251 254 256 256 257 258 259 262 262 263 268 272 275 278 280 280 286 291 294 297 300 299 303 309 309 314 320 321 321 317 317 317 317 316
237 237 237 236 236 239 239 238 238 243 250 256 262 260 260 261 259 261 262 262 266 266 270 274 274 275 277 283 288 290 293 295 295 299 302 306 311 313 313 312 313 313 310 309
235 238 239 237 237 237 240 239 239 244 248 251 257 263 262 262 263 263 263 262 263 263 267 271 269 271 273 277 281 286 287 288 290 292 294 298 304 309 304 300 302 303 303 302
232 236 238 238 236 236 237 240 238 238 244 249 256 263 264 265 263 261 262 263 263 264 267 270 269 267 269 273 276 280 282 284 288 288 288 292 296 301 306 299 294 296 298 297
231 233 236 236 235 237 238 238 239 240 242 247 254 262 267 266 263 261 261 263 264 264 266 268 269 267 267 269 273 276 277 279 283 286 286 289 291 293 300 298 294 294 294 295
230 230 234 237 238 237 238 239 240 241 245 247 250 258 265 266 263 261 261 263 263 264 265 265 264 263 266 267 269 272 274 276 280 283 286 288 288 292 295 297 294 293 291 291
229 229 231 236 239 237 237 239 240 242 246 249 250 256 261 263 260 258 259 261 262 262 262 262 260 260 263 265 267 268 271 273 278 282 286 288 289 291 292 292 291 290 289 289
230 231 231 233 238 240 239 241 243 243 242 247 250 252 257 260 258 256 257 259 260 259 260 261 262 263 263 264 264 266 268 271 274 278 283 286 287 289 289 289 288 287 287 288
230 232 233 232 236 242 244 243 245 245 244 246 251 255 256 257 257 257 258 259 258 258 259 259 261 262 262 265 265 264 267 270 274 278 282 284 286 287 287 286 286 286 286 287
230 233 235 235 237 240 243 245 247 249 250 250 253 256 258 256 257 258 259 259 256 257 257 257 258 259 261 263 263 263 268 271 273 277 280 281 283 284 284 284 285 285 285 285
232 234 235 237 237 240 243 244 247 251 252 252 254 256 256 256 257 257 258 257 254 254 255 254 257 259 262 263 263 265 267 268 271 274 277 279 280 281 282 283 283 283 282 282
233 235 235 236 238 239 244 247 249 251 252 252 253 254 257 258 257 257 256 255 256 253 253 254 257 260 262 264 264 266 268 268 271 272 274 276 278 279 280 281 281 281 281 281
233 234 235 236 239 243 245 246 248 251 252 252 255 255 256 256 254 253 254 255 255 256 256 255 258 260 262 264 264 267 270 270 271 271 272 274 275 276 278 278 279 279 280 280
232 234 236 238 240 246 249 248 249 252 254 254 254 255 257 256 254 253 253 253 253 255 256 256 257 259 261 263 265 268 271 271 271 270 270 272 273 274 275 276 277 278 281 282
232 234 236 239 242 246 250 250 250 251 254 255 256 256 256 257 256 255 254 253 254 256 259 260 261 260 261 263 266 269 272 273 271 272 272 272 272 274 275 276 277 278 279 282
232 234 237 240 242 245 249 250 251 254 256 256 256 256 256 256 255 255 253 253 254 257 260 262 263 264 263 264 266 270 272 273 272 270 271 271 272 274 276 277 278 278 280 282
233 235 238 240 244 248 250 252 253 254 256 256 256 257 257 256 256 254 253 253 255 257 259 261 261 263 265 267 268 269 271 271 272 272 272 271 273 272 274 276 277 278 280 281
235 236 239 242 244 247 250 252 253 255 255 257 258 258 257 256 256 255 256 255 255 257 258 260 262 264 265 266 267 268 271 272 272 273 273 273 273 273 274 275 277 279 281 282
238 239 241 243 245 247 250 252 253 253 256 258 259 259 259 258 257 257 258 259 259 259 260 262 263 265 266 267 268 269 270 271 273 273 273 273 273 274 274 275 276 278 280 281
239 240 241 244 247 249 250 251 253 254 255 257 258 259 261 260 259 259 259 259 260 259 261 262 263 264 266 268 269 270 271 272 273 274 274 274 273 274 274 274 275 277 278 280
Height
5906 5910 5912 5915 5917 5920 5921 5922 5923 5923 5922 5923 5923 5923 5922 5920 5919 5918 5917 5916 5915 5914 5913 5912 5910 5909 5907 5906 5905 5903 5902 5901 5899 5898 5897 5896 5895 5894 5893 5892 5891 5890 5890 5889
5903 5905 5909 5911 5913 5915 5917 5919 5920 5920 5920 5921 5921 5922 5921 5920 5919 5918 5917 5917 5915 5914 5913 5912 5911 5910 5908 5907 5906 5905 5903 5902 5900 5899 5898 5896 5895 5894 5893 5892 5891 5890 5890 5889
5899 5903 5904 5906 5909 5911 5913 5916 5918 5918 5918 5918 5920 5920 5920 5920 5919 5918 5917 5916 5915 5914 5913 5912 5911 5910 5909 5907 5906 5905 5904 5902 5901 5899 5898 5897 5896 5894 5893 5892 5891 5891 5890 5889
5893 5896 5899 5901 5904 5907 5910 5912 5914 5914 5915 5917 5918 5919 5919 5918 5917 5917 5916 5915 5914 5913 5913 5912 5911 5910 5909 5907 5906 5905 5904 5902 5901 5899 5898 5897 5896 5894 5893 5892 5891 5890 5890 5889
5888 5891 5893 5897 5900 5903 5906 5907 5909 5910 5912 5913 5914 5915 5918 5915 5915 5915 5914 5913 5913 5912 5911 5911 5910 5909 5908 5907 5905 5904 5903 5902 5900 5899 5898 5896 5895 5894 5893 5892 5891 5890 5889 5888
5882 5885 5888 5891 5895 5897 5900 5903 5904 5906 5908 5909 5910 5912 5913 5913 5913 5912 5912 5911 5911 5910 5909 5909 5908 5907 5907 5906 5904 5903 5902 5900 5899 5898 5897 5896 5895 5893 5892 5891 5890 5889 5888 5887
5875 5878 5881 5885 5888 5891 5894 5898 5901 5902 5904 5905 5906 5906 5908 5909 5909 5909 5909 5908 5908 5908 5907 5906 5906 5905 5904 5904 5903 5901 5900 5899 5898 5897 5895 5894 5893 5892 5890 5889 5888 5887 5886 5885
5870 5872 5875 5878 5882 5885 5888 5893 5897 5899 5901 5902 5900 5900 5904 5904 5904 5905 5905 5905 5905 5904 5904 5904 5903 5902 5902 5901 5900 5899 5898 5897 5895 5894 5893 5893 5892 5890 5889 5888 5887 5885 5884 5883
5865 5868 5870 5872 5876 5879 5882 5886 5891 5894 5894 5896 5896 5896 5898 5898 5899 5900 5901 5901 5901 5900 5900 5900 5900 5899 5899 5898 5897 5897 5896 5895 5893 5892 5891 5890 5889 5888 5887 5885 5884 5883 5882 5880
5858 5862 5864 5866 5869 5872 5876 5879 5883 5886 5888 5890 5891 5891 5893 5893 5894 5895 5896 5896 5896 5896 5896 5896 5896 5895 5895 5895 5894 5893 5893 5892 5891 5890 5889 5887 5886 5885 5884 5882 5881 5880 5879 5878
5851 5855 5858 5860 5862 5866 5869 5872 5875 5879 5882 5884 5887 5890 5887 5887 5888 5889 5890 5890 5891 5891 5891 5891 5891 5891 5891 5890 5890 5890 5889 5888 5887 5886 5885 5884 5883 5882 5880 5879 5878 5877 5876 5875
5844 5849 5852 5854 5857 5859 5862 5865 5868 5872 5874 5876 5879 5885 5881 5881 5882 5883 5884 5884 5885 5885 5886 5886 5885 5886 5886 5886 5885 5885 5885 5884 5883 5882 5881 5880 5879 5878 5876 5875 5874 5873 5872 5871
5838 5842 5845 5848 5852 5853 5855 5858 5861 5865 5868 5869 5873 5878 5875 5874 5875 5876 5877 5878 5879 5879 5880 5880 5880 5880 5880 5880 5880 5880 5879 5878 5878 5878 5877 5876 5875 5873 5872 5871 5869 5868 5867 5866
5831 5835 5840 5844 5846 5847 5849 5852 5854 5858 5861 5862 5865 5868 5868 5867 5868 5869 5870 5871 5872 5873 5874 5874 5875 5875 5875 5875 5875 5874 5874 5874 5873 5873 5872 5871 5870 5868 5867 5865 5864 5863 5862 5861
5824 5828 5832 5836 5839 5841 5843 5846 5848 5850 5852 5856 5858 5858 5859 5860 5860 5861 5863 5864 5865 5866 5867 5868 5869 5869 5869 5869 5869 5869 5868 5868 5867 5867 5866 5865 5864 5863 5861 5860 5859 5857 5856 5854
5817 5821 5825 5828 5832 5835 5837 5839 5841 5843 5845 5847 5849 5850 5851 5851 5853 5854 5856 5857 5858 5860 5860 5861 5862 5862 5863 5863 5863 5863 5862 5862 5861 5860 5860 5859 5858 5857 5855 5854 5853 5851 5849 5847
5811 5815 5819 5822 5825 5827 5829 5832 5834 5836 5838 5840 5841 5843 5843 5844 5846 5847 5849 5849 5851 5852 5853 5854 5855 5855 5856 5856 5856 5856 5856 5855 5854 5854 5853 5852 5851 5850 5848 5847 5846 5844 5842 5840
5805 5808 5812 5816 5818 5820 5824 5825 5827 5829 5830 5832 5833 5834 5835 5837 5839 5840 5841 5843 5844 5844 5845 5847 5848 5848 5848 5849 5849 5848 5848 5847 5847 5846 5845 5845 5843 5842 5840 5839 5838 5837 5835 5833
5797 5801 5805 5808 5811 5812 5815 5817 5820 5821 5822 5824 5825 5826 5828 5830 5831 5832 5834 5835 5837 5837 5838 5839 5840 5840 5841 5841 5841 5840 5840 5839 5838 5838 5837 5836 5835 5833 5832 5831 5830 5829 5827 5826
5790 5794 5798 5800 5804 5806 5807 5810 5812 5815 5814 5816 5818 5818 5820 5822 5824 5825 5826 5827 5828 5829 5830 5831 5832 5832 5832 5832 5832 5832 5831 5831 5830 5828 5828 5827 5826 5824 5823 5822 5821 5820 5819 5817
5782 5786 5789 5792 5795 5797 5798 5801 5804 5807 5808 5809 5810 5811 5812 5814 5815 5817 5818 5819 5820 5821 5822 5822 5822 5822 5823 5824 5824 5823 5823 5822 5821 5819 5818 5817 5817 5815 5814 5813 5812 5811 5810 5809
5774 5778 5781 5784 5787 5790 5790 5793 5796 5798 5799 5800 5801 5803 5804 5805 5806 5807 5809 5810 5811 5812 5813 5813 5813 5813 5813 5814 5814 5814 5813 5812 5810 5809 5808 5807 5807 5805 5804 5803 5802 5801 5800 5799
5766 5770 5773 5776 5780 5781 5782 5784 5786 5788 5790 5791 5793 5794 5795 5796 5797 5799 5800 5801 5802 5803 5804 5804 5804 5805 5805 5805 5804 5804 5803 5801 5800 5798 5797 5796 5796 5795 5794 5793 5792 5791 5790 5788
5758 5761 5764 5767 5770 5772 5774 5776 5777 5779 5781 5782 5784 5785 5786 5787 5789 5790 5791 5792 5793 5794 5794 5794 5795 5795 5795 5794 5794 5793 5792 5791 5790 5789 5788 5787 5786 5785 5784 5783 5782 5781 5780 5778
5751 5754 5756 5759 5762 5764 5766 5767 5769 5771 5772 5773 5775 5776 5777 5778 5779 5781 5781 5782 5783 5784 5784 5785 5785 5785 5784 5784 5783 5783 5781 5780 5779 5778 5777 5776 5775 5775 5773 5772 5771 5770 5769 5767
5743 5746 5749 5751 5753 5755 5758 5759 5760 5762 5763 5764 5766 5767 5768 5769 5770 5771 5772 5772 5773 5774 5774 5774 5774 5774 5774 5773 5773 5772 5771 5769 5769 5768 5767 5765 5764 5764 5762 5761 5761 5759 5758 5756